Главная страница
METAR-TAF:

METAR-TAF

Аэропорты :

Cape May County Airport

Вайлдвуд, Нью-Джерси, США

широта: 39-01N, долгота: 074-55W, высота над уровнем моря: 7 м

Текущие метеонаблюдения

Эта сводка был подготовлена 40 минут назад, в 01:55 UTC
Ветер 13 Узел от южный-юго-западный с порывами до 19 Узел
Температура 16°C
Влажность 63%
Давление 1017 hPa
Видимость: 16.1 км
ясное небо

METAR: KWWD 200155Z AUTO 21013G19KT 10SM CLR 16/09 A3004 RMK AO2 SLP175 T01560089

Время: 22:35 (02:35 UTC)


TAF: отсутствует

Метеонаблюдения и прогнозы для более 4000 аэропортов (сводки METAR и TAF).

Имеющиеся станции представлены на карте желтыми и красными точками.

Чтобы увидеть название станции, наведите на нее мышь.

Затем щелкните, чтобы увидеть метеонаблюдения и метеопрогнозы.

Управление картой: чтобы увеличить масштаб, щелкните зеленые кнопки с черным крестиком; чтобы уменьшить масштаб, щелкните зеленую кнопку с тире; для просмотра соседних карт щелкайте зеленые стрелки.


METAR-TAF: